Weather History for Salida, CO

Change the Weather History Date:

Thursday, October 17, 2013

  Actual Average (KGUC) Record (KGUC)
Temperature  
Mean Temperature 43 °F -  
Max Temperature 56 °F 56 °F 71 °F (2003)
Min Temperature 30 °F 21 °F 10 °F (1999)
Degree Days  
Heating Degree Days 22    
Moisture  
Dew Point 14 °F    
Average Humidity 35    
Maximum Humidity 55    
Minimum Humidity 12    
Precipitation  
Precipitation 0.00 in - - ()
Sea Level Pressure  
Sea Level Pressure 30.15 in    
Wind  
Wind Speed 10 mph (West)    
Max Wind Speed 22 mph    
Max Gust Speed 33 mph    
Visibility 10 miles    
Events      
Averages and records for this station are not official NWS values.
T = Trace of Precipitation, MM = Missing Value Source: NWS Daily Summary

Daily Weather History Graph

Daily Weather History Graph

Search for Another Location

Airport:

Trip Planner

Search our weather history database for the weather conditions in past years. The results will help you decide how hot, cold, wet, or windy it might be!

Date:

Astronomy

Oct. 17, 2013 Rise Set
Actual Time 7:15 AM MDT 6:22 PM MDT
Civil Twilight 6:48 AM MDT 6:49 PM MDT
Nautical Twilight 6:17 AM MDT 7:20 PM MDT
Astronomical Twilight 5:47 AM MDT 7:51 PM MDT
Moon 5:38 PM MDT (10/17) 5:51 AM MDT (10/17)
Length of Visible Light 12h 00m
Length of Day
11h 07m
Waxing Gibbous, 98% of the Moon is Illuminated
Oct 17
Waxing Gibbous
Oct 18
Full
Oct 26
Last Quarter
Nov 3
New
Nov 9
First Quarter

Hourly Weather History & Observations

Time (MDT) Temp. Windchill Dew Point Humidity Pressure Visibility Wind Dir Wind Speed Gust Speed Precip Events Conditions
12:15 AM 36.3 °F 30.8 °F 19.2 °F 50% 30.23 in 10.0 mi WNW 6.9 mph - N/A   Clear
12:35 AM 37.2 °F 30.6 °F 18.3 °F 46% 30.22 in 10.0 mi NNW 9.2 mph - N/A   Clear
12:55 AM 36.3 °F 29.5 °F 17.4 °F 46% 30.22 in 10.0 mi NW 9.2 mph - N/A   Clear
1:15 AM 34.3 °F 27.0 °F 18.9 °F 53% 30.22 in 10.0 mi NW 9.2 mph - N/A   Clear
1:35 AM 32.9 °F 27.5 °F 18.3 °F 55% 30.22 in 10.0 mi NW 5.8 mph - N/A   Clear
1:55 AM 34.5 °F 27.3 °F 17.6 °F 50% 30.22 in 10.0 mi WNW 9.2 mph - N/A   Clear
2:15 AM 35.1 °F 27.4 °F 16.5 °F 47% 30.23 in 10.0 mi NNW 10.4 mph - N/A   Clear
2:35 AM 34.5 °F 26.2 °F 16.5 °F 48% 30.22 in 10.0 mi NNW 11.5 mph - N/A   Clear
2:55 AM 34.9 °F 27.1 °F 16.0 °F 46% 30.22 in 10.0 mi NW 10.4 mph - N/A   Clear
3:15 AM 34.7 °F 25.9 °F 15.8 °F 46% 30.21 in 10.0 mi NNW 12.7 mph - N/A   Clear
3:35 AM 34.7 °F 26.9 °F 15.3 °F 45% 30.21 in 10.0 mi NNW 10.4 mph - N/A   Clear
3:55 AM 34.7 °F 26.4 °F 15.1 °F 45% 30.21 in 10.0 mi NW 11.5 mph - N/A   Clear
4:15 AM 34.2 °F 26.8 °F 15.3 °F 46% 30.20 in 10.0 mi NW 9.2 mph - N/A   Clear
4:35 AM 34.0 °F 25.0 °F 14.9 °F 46% 30.21 in 10.0 mi NW 12.7 mph 17.3 mph N/A   Clear
4:55 AM 33.8 °F 24.8 °F 14.9 °F 46% 30.21 in 10.0 mi NW 12.7 mph - N/A   Clear
5:15 AM 33.3 °F 26.4 °F 14.9 °F 47% 30.20 in 10.0 mi NNW 8.1 mph - N/A   Clear
5:35 AM 33.1 °F 24.9 °F 14.7 °F 47% 30.20 in 10.0 mi NNW 10.4 mph - N/A   Clear
5:55 AM 32.9 °F 25.9 °F 14.4 °F 47% 30.20 in 10.0 mi NNW 8.1 mph - N/A   Clear
6:15 AM 32.9 °F 26.7 °F 14.0 °F 46% 30.20 in 10.0 mi North 6.9 mph - N/A   Clear
6:35 AM 31.1 °F 22.4 °F 14.2 °F 50% 30.20 in 10.0 mi NNW 10.4 mph - N/A   Clear
6:55 AM 30.9 °F 23.5 °F 14.0 °F 50% 30.21 in 10.0 mi NNW 8.1 mph - N/A   Clear
7:15 AM 30.7 °F 22.0 °F 14.0 °F 50% 30.21 in 10.0 mi NNW 10.4 mph - N/A   Clear
7:35 AM 30.2 °F 19.8 °F 14.0 °F 51% 30.21 in 10.0 mi NNW 13.8 mph - N/A   Clear
7:55 AM 31.1 °F 21.4 °F 14.4 °F 50% 30.22 in 10.0 mi NNW 12.7 mph - N/A   Clear
8:15 AM 32.0 °F 23.6 °F 14.5 °F 49% 30.23 in 10.0 mi NNW 10.4 mph - N/A   Clear
8:35 AM 32.9 °F 25.9 °F 14.4 °F 47% 30.24 in 10.0 mi NNW 8.1 mph - N/A   Clear
8:55 AM 34.7 °F 26.9 °F 14.7 °F 44% 30.23 in 10.0 mi North 10.4 mph - N/A   Clear
9:15 AM 36.7 °F 32.0 °F 16.3 °F 44% 30.22 in 10.0 mi North 5.8 mph - N/A   Clear
9:35 AM 38.5 °F 36.1 °F 17.2 °F 42% 30.22 in 10.0 mi NE 3.5 mph - N/A   Clear
9:55 AM 40.8 °F - 17.1 °F 38% 30.21 in 10.0 mi Calm Calm - N/A   Clear
10:15 AM 42.8 °F - 15.1 °F 33% 30.21 in 10.0 mi Calm Calm - N/A   Clear
10:35 AM 46.2 °F - 14.0 °F 27% 30.19 in 10.0 mi Calm Calm - N/A   Clear
10:55 AM 48.2 °F - 11.7 °F 23% 30.19 in 10.0 mi SW 11.5 mph 16.1 mph N/A   Clear
11:15 AM 48.7 °F - 11.5 °F 22% 30.17 in 10.0 mi South 13.8 mph 20.7 mph N/A   Clear
11:35 AM 48.6 °F - 14.0 °F 25% 30.17 in 10.0 mi South 12.7 mph 26.5 mph N/A   Clear
11:55 AM 51.1 °F - 12.7 °F 22% 30.15 in 10.0 mi South 16.1 mph 20.7 mph N/A   Clear
12:15 PM 51.3 °F - 10.9 °F 20% 30.14 in 10.0 mi SSW 17.3 mph 27.6 mph N/A   Clear
12:35 PM 52.7 °F - 8.1 °F 17% 30.12 in 10.0 mi SSW 13.8 mph 26.5 mph N/A   Clear
12:55 PM 54.0 °F - 7.9 °F 16% 30.11 in 10.0 mi SW 17.3 mph 32.2 mph N/A   Clear
1:15 PM 54.9 °F - 7.5 °F 15% 30.10 in 10.0 mi SW 20.7 mph 33.4 mph N/A   Clear
1:35 PM 55.0 °F - 3.2 °F 12% 30.09 in 10.0 mi WSW 21.9 mph 33.4 mph N/A   Clear
1:55 PM 56.3 °F - 4.5 °F 12% 30.09 in 10.0 mi SW 21.9 mph 32.2 mph N/A   Clear
2:15 PM 55.2 °F - 5.4 °F 13% 30.08 in 10.0 mi SW 20.7 mph 28.8 mph N/A   Clear
2:35 PM 56.7 °F - 6.3 °F 13% 30.07 in 10.0 mi WSW 19.6 mph 28.8 mph N/A   Clear
2:55 PM 56.7 °F - 7.3 °F 14% 30.07 in 10.0 mi WSW 19.6 mph 27.6 mph N/A   Clear
3:15 PM 56.3 °F - 7.7 °F 14% 30.07 in 10.0 mi WSW 16.1 mph 24.2 mph N/A   Clear
3:35 PM 56.1 °F - 9.9 °F 16% 30.07 in 10.0 mi WSW 19.6 mph 29.9 mph N/A   Clear
3:55 PM 56.3 °F - 11.7 °F 17% 30.07 in 10.0 mi SW 17.3 mph 24.2 mph N/A   Clear
4:15 PM 55.4 °F - 13.1 °F 19% 30.07 in 10.0 mi WSW 18.4 mph 24.2 mph N/A   Clear
4:35 PM 55.2 °F - 12.7 °F 19% 30.07 in 10.0 mi SW 15.0 mph 20.7 mph N/A   Clear
4:55 PM 53.8 °F - 12.9 °F 20% 30.07 in 10.0 mi WSW 12.7 mph 23.0 mph N/A   Clear
5:15 PM 52.7 °F - 12.6 °F 20% 30.07 in 10.0 mi WSW 16.1 mph 23.0 mph N/A   Clear
5:35 PM 51.8 °F - 12.7 °F 21% 30.07 in 10.0 mi SW 16.1 mph 21.9 mph N/A   Clear
5:55 PM 50.4 °F - 12.6 °F 22% 30.07 in 10.0 mi WSW 10.4 mph - N/A   Clear
6:15 PM 47.8 °F - 13.1 °F 25% 30.07 in 10.0 mi SW 13.8 mph 18.4 mph N/A   Clear
6:35 PM 47.1 °F - 13.1 °F 25% 30.07 in 10.0 mi SW 12.7 mph - N/A   Clear
6:55 PM 45.7 °F 39.8 °F 14.4 °F 28% 30.08 in 10.0 mi WSW 12.7 mph - N/A   Clear
7:15 PM 45.9 °F 39.4 °F 14.0 °F 28% 30.09 in 10.0 mi WSW 15.0 mph 21.9 mph N/A   Clear
7:35 PM 45.7 °F 38.8 °F 13.6 °F 28% 30.09 in 10.0 mi WSW 16.1 mph 21.9 mph N/A   Clear
7:55 PM 45.1 °F 39.1 °F 13.5 °F 28% 30.10 in 10.0 mi WSW 12.7 mph 19.6 mph N/A   Clear
8:15 PM 43.7 °F 37.7 °F 12.9 °F 29% 30.10 in 10.0 mi WSW 11.5 mph - N/A   Clear
8:35 PM 41.7 °F 34.8 °F 12.9 °F 31% 30.11 in 10.0 mi WSW 12.7 mph 16.1 mph N/A   Clear
8:55 PM 42.8 °F 37.0 °F 11.7 °F 28% 30.12 in 10.0 mi SW 10.4 mph - N/A   Clear
9:15 PM 41.0 °F 35.2 °F 12.0 °F 31% 30.12 in 10.0 mi WNW 9.2 mph - N/A   Clear
9:35 PM 40.1 °F 38.0 °F 11.3 °F 31% 30.13 in 10.0 mi West 3.5 mph - N/A   Clear
9:55 PM 39.2 °F - 11.8 °F 33% 30.14 in 10.0 mi Calm Calm - N/A   Clear
10:15 PM 36.9 °F 32.2 °F 12.6 °F 37% 30.14 in 10.0 mi SE 5.8 mph - N/A   Scattered Clouds
10:35 PM 40.3 °F 34.9 °F 22.5 °F 49% 30.14 in 10.0 mi ESE 8.1 mph - N/A   Clear
10:55 PM 39.4 °F 36.1 °F 23.0 °F 52% 30.13 in 10.0 mi SE 4.6 mph - N/A   Clear
11:15 PM 38.8 °F 35.4 °F 23.0 °F 53% 30.13 in 10.0 mi SSE 4.6 mph - N/A   Clear
11:35 PM 38.5 °F 35.0 °F 22.8 °F 53% 30.12 in 10.0 mi South 4.6 mph - N/A   Clear
11:55 PM 37.4 °F 33.8 °F 22.6 °F 55% 30.11 in 10.0 mi South 4.6 mph - N/A   Clear